HIMAWARI-8 (40267 NORAD) Tracking and Keplerian Element Data

This shows tracking and keplerian element data for the satellite.

Feedback or suggestion? Click here.




ElementValue
Catalog40267
NameHIMAWARI-8
Epoch Orbit3776
Epoch Day34.76502941
Epoch Year2025
RAAN120.131
Inclination0.0121
Eccentricity8.14E-05
Argument of Perigee209.3402
Mean Anonmoly220.7613
Mean Motion1.00269354
Decay Rate-2.72E-06
L11 40267U 14060A 25034.76502941 -.00000272 00000+0 00000+0 0 9998
L22 40267 0.0121 120.1310 0000814 209.3402 220.7613 1.00269354 37760



Live tracking and technical data element details for HIMAWARI-8 (NORAD 40267). HIMAWARI-8 can be tracked NOW for your location showing map with azimuth and elevation plus other details from your city location.







IsCatalogInMostPopularTable: catalog: 40267, numindb: 730
Update: records affected: 1



GetName: 40267 HIMAWARI-8

Hit Count: updated at: Sat, 17 May 2025 08:04:09 GMT